| time (UTC) | temp F | wind direction | speed MPH | gust MPH | rain 1hr in | rain 24hr in | rain mn in | humidity % | barometer mb |
| 20260902122622 | 80 | 161 | 0.0 | 0.0 | 0.00 | 0.00 | 0.00 | 94 | 1012.3 |
| 20260902121117 | 80 | 161 | 0.0 | 0.0 | 0.00 | 0.00 | 0.00 | 93 | 1012.2 |
| 20260902115637 | 80 | 161 | 0.0 | 3.0 | 0.00 | 0.00 | 0.00 | 93 | 1012.3 |
| 20260902114124 | 80 | 161 | 0.0 | 0.0 | 0.00 | 0.00 | 0.00 | 92 | 1012.4 |
| 20260902112625 | 81 | 161 | 0.0 | 0.0 | 0.00 | 0.00 | 0.00 | 92 | 1012.3 |
| 20260902111123 | 81 | 161 | 1.0 | 5.0 | 0.00 | 0.00 | 0.00 | 92 | 1012.2 |
| 20260902105624 | 81 | 162 | 0.0 | 3.0 | 0.00 | 0.00 | 0.00 | 92 | 1012.1 |
| 20260902104138 | 81 | 162 | 1.0 | 3.0 | 0.00 | 0.00 | 0.00 | 92 | 1012.1 |
| 20260902102637 | 81 | 162 | 0.0 | 3.0 | 0.00 | 0.00 | 0.00 | 91 | 1012.1 |
| 20260902101128 | 81 | 161 | 1.0 | 5.0 | 0.00 | 0.00 | 0.00 | 91 | 1012.1 |
| 20260902095631 | 81 | 147 | 2.0 | 5.0 | 0.00 | 0.00 | 0.00 | 91 | 1012.1 |
| 20260902094119 | 82 | 137 | 1.0 | 5.0 | 0.00 | 0.00 | 0.00 | 91 | 1012.1 |
| 20260902092622 | 82 | 175 | 2.0 | 6.0 | 0.00 | 0.00 | 0.00 | 90 | 1012.1 |
| 20260902091140 | 82 | 165 | 3.0 | 7.0 | 0.00 | 0.00 | 0.00 | 90 | 1012.1 |
| 20260902085639 | 82 | 147 | 2.0 | 7.0 | 0.00 | 0.00 | 0.00 | 90 | 1012.2 |
| 20260902084133 | 82 | 173 | 2.0 | 5.0 | 0.00 | 0.00 | 0.00 | 89 | 1012.3 |
| 20260902082647 | 82 | 166 | 3.0 | 8.0 | 0.00 | 0.00 | 0.00 | 89 | 1012.3 |
| 20260902081122 | 82 | 155 | 3.0 | 7.0 | 0.00 | 0.00 | 0.00 | 90 | 1012.4 |
| 20260902075622 | 82 | 173 | 4.0 | 7.0 | 0.00 | 0.00 | 0.00 | 90 | 1012.5 |
| 20260902074120 | 82 | 161 | 5.0 | 9.0 | 0.00 | 0.00 | 0.00 | 90 | 1012.6 |
| 20260902072641 | 83 | 142 | 4.0 | 8.0 | 0.00 | 0.00 | 0.00 | 90 | 1012.8 |
| 20260902071116 | 83 | 165 | 4.0 | 10.0 | 0.00 | 0.00 | 0.00 | 90 | 1013.0 |
| 20260902065637 | 83 | 144 | 3.0 | 8.0 | 0.00 | 0.00 | 0.00 | 90 | 1013.2 |
| 20260902064133 | 83 | 147 | 4.0 | 9.0 | 0.00 | 0.00 | 0.00 | 90 | 1013.2 |
| 20260902062621 | 83 | 171 | 3.0 | 8.0 | 0.00 | 0.00 | 0.00 | 90 | 1013.3 |
| 20260902061137 | 83 | 163 | 4.0 | 8.0 | 0.00 | 0.00 | 0.00 | 90 | 1013.3 |
| 20260902055634 | 83 | 161 | 3.0 | 8.0 | 0.00 | 0.00 | 0.00 | 90 | 1013.2 |
| 20260902054123 | 83 | 119 | 3.0 | 7.0 | 0.00 | 0.00 | 0.00 | 89 | 1013.3 |
| 20260902052643 | 83 | 149 | 3.0 | 9.0 | 0.00 | 0.00 | 0.00 | 89 | 1013.3 |
| 20260902051133 | 83 | 130 | 3.0 | 9.0 | 0.00 | 0.00 | 0.00 | 89 | 1013.2 |
| 20260902045637 | 83 | 145 | 4.0 | 9.0 | 0.00 | 0.00 | 0.00 | 89 | 1013.3 |
| 20260902044121 | 83 | 165 | 3.0 | 7.0 | 0.00 | 0.00 | 0.00 | 89 | 1013.4 |
| 20260902042622 | 83 | 141 | 3.0 | 7.0 | 0.00 | 0.00 | 0.00 | 89 | 1013.3 |
| 20260902041122 | 83 | 131 | 3.0 | 8.0 | 0.00 | 0.00 | 0.00 | 90 | 1013.2 |
| 20260902035644 | 83 | 136 | 3.0 | 7.0 | 0.00 | 0.00 | 0.00 | 90 | 1012.9 |
| 20260902034134 | 83 | 133 | 3.0 | 5.0 | 0.00 | 0.00 | 0.00 | 90 | 1012.9 |
| 20260902032645 | 83 | 135 | 1.0 | 5.0 | 0.00 | 0.00 | 0.00 | 90 | 1012.7 |
| 20260902031120 | 83 | 132 | 3.0 | 5.0 | 0.00 | 0.00 | 0.00 | 90 | 1012.7 |
| 20260902025643 | 83 | 132 | 2.0 | 4.0 | 0.00 | 0.00 | 0.00 | 89 | 1012.3 |
| 20260902024123 | 84 | 71 | 2.0 | 7.0 | 0.00 | 0.00 | 0.00 | 88 | 1012.1 |
| 20260902022623 | 84 | 103 | 3.0 | 8.0 | 0.00 | 0.00 | 0.00 | 87 | 1011.8 |
| 20260902021141 | 85 | 132 | 3.0 | 8.0 | 0.00 | 0.00 | 0.00 | 86 | 1011.7 |
| 20260902015620 | 85 | 76 | 3.0 | 10.0 | 0.00 | 0.00 | 0.00 | 85 | 1011.3 |
| 20260902014119 | 85 | 132 | 4.0 | 11.0 | 0.00 | 0.00 | 0.00 | 84 | 1011.2 |
| 20260902012621 | 86 | 127 | 5.0 | 14.0 | 0.00 | 0.00 | 0.00 | 83 | 1011.0 |
| 20260902011141 | 86 | 138 | 6.0 | 12.0 | 0.00 | 0.00 | 0.00 | 82 | 1011.0 |
| 20260902005703 | 87 | 36 | 7.0 | 16.0 | 0.00 | 0.00 | 0.00 | 80 | 1010.8 |
| 20260902004117 | 87 | 94 | 6.0 | 16.0 | 0.00 | 0.00 | 0.00 | 78 | 1010.6 |
| 20260902002618 | 88 | 101 | 7.0 | 13.0 | 0.00 | 0.00 | 0.00 | 76 | 1010.5 |
| 20260902001135 | 89 | 146 | 6.0 | 13.0 | 0.00 | 0.00 | 0.00 | 74 | 1010.5 |
| 20260901235627 | 90 | 142 | 9.0 | 14.0 | 0.00 | 0.00 | 0.00 | 71 | 1010.3 |
| 20260901234147 | 91 | 108 | 8.0 | 15.0 | 0.00 | 0.00 | 0.00 | 69 | 1010.1 |
| 20260901232625 | 92 | 122 | 6.0 | 15.0 | 0.00 | 0.00 | 0.00 | 69 | 1010.1 |
| 20260901231123 | 92 | 125 | 7.0 | 16.0 | 0.00 | 0.00 | 0.00 | 68 | 1010.1 |
| 20260901225642 | 93 | 120 | 8.0 | 17.0 | 0.00 | 0.00 | 0.00 | 66 | 1010.0 |
| 20260901224136 | 93 | 133 | 10.0 | 16.0 | 0.00 | 0.00 | 0.00 | 65 | 1009.9 |
| 20260901222626 | 94 | 136 | 9.0 | 15.0 | 0.00 | 0.00 | 0.00 | 65 | 1009.8 |
| 20260901221143 | 95 | 36 | 7.0 | 14.0 | 0.00 | 0.00 | 0.00 | 63 | 1009.9 |
| 20260901215624 | 96 | 73 | 11.0 | 17.0 | 0.00 | 0.00 | 0.00 | 60 | 1010.1 |
| 20260901214121 | 96 | 126 | 8.0 | 17.0 | 0.00 | 0.00 | 0.00 | 61 | 1010.0 |
| 20260901212622 | 96 | 116 | 7.0 | 18.0 | 0.00 | 0.00 | 0.00 | 61 | 1009.9 |
| 20260901211121 | 97 | 141 | 8.0 | 16.0 | 0.00 | 0.00 | 0.00 | 59 | 1010.0 |
| 20260901205620 | 97 | 144 | 8.0 | 16.0 | 0.00 | 0.00 | 0.00 | 60 | 1010.1 |
| 20260901204135 | 97 | 173 | 5.0 | 16.0 | 0.00 | 0.00 | 0.00 | 58 | 1010.5 |
| 20260901202626 | 97 | 111 | 7.0 | 19.0 | 0.00 | 0.00 | 0.00 | 58 | 1010.6 |
| 20260901201123 | 97 | 150 | 8.0 | 16.0 | 0.00 | 0.00 | 0.00 | 59 | 1010.7 |
| 20260901195645 | 98 | 164 | 8.0 | 14.0 | 0.00 | 0.00 | 0.00 | 55 | 1010.9 |
| 20260901194123 | 98 | 180 | 7.0 | 12.0 | 0.00 | 0.00 | 0.00 | 54 | 1011.1 |
| 20260901192621 | 98 | 128 | 6.0 | 12.0 | 0.00 | 0.00 | 0.00 | 54 | 1011.2 |
| 20260901191158 | 98 | 126 | 8.0 | 14.0 | 0.00 | 0.00 | 0.00 | 55 | 1011.3 |
| 20260901185624 | 98 | 87 | 7.0 | 12.0 | 0.00 | 0.00 | 0.00 | 55 | 1011.6 |
| 20260901184126 | 97 | 90 | 7.0 | 14.0 | 0.00 | 0.00 | 0.00 | 58 | 1011.4 |
| 20260901182624 | 97 | 107 | 6.0 | 11.0 | 0.00 | 0.00 | 0.00 | 55 | 1012.1 |
| 20260901181118 | 97 | 140 | 5.0 | 11.0 | 0.00 | 0.00 | 0.00 | 56 | 1012.2 |
| 20260901175632 | 97 | 284 | 6.0 | 15.0 | 0.00 | 0.00 | 0.00 | 54 | 1012.5 |
| 20260901174150 | 97 | 130 | 5.0 | 9.0 | 0.00 | 0.00 | 0.00 | 56 | 1012.8 |
| 20260901172631 | 95 | 184 | 4.0 | 10.0 | 0.00 | 0.00 | 0.00 | 57 | 1012.9 |
| 20260901171126 | 95 | 147 | 6.0 | 11.0 | 0.00 | 0.00 | 0.00 | 60 | 1013.1 |
| 20260901165621 | 94 | 191 | 5.0 | 10.0 | 0.00 | 0.00 | 0.00 | 61 | 1013.0 |
| 20260901164118 | 94 | 219 | 2.0 | 12.0 | 0.00 | 0.00 | 0.00 | 63 | 1013.2 |
| 20260901162636 | 93 | 162 | 5.0 | 11.0 | 0.00 | 0.00 | 0.00 | 65 | 1013.3 |
| 20260901161134 | 92 | 113 | 6.0 | 11.0 | 0.00 | 0.00 | 0.00 | 67 | 1013.2 |
| 20260901155634 | 92 | 152 | 4.0 | 10.0 | 0.00 | 0.00 | 0.00 | 68 | 1013.2 |
| 20260901154130 | 91 | 154 | 5.0 | 11.0 | 0.00 | 0.00 | 0.00 | 70 | 1013.3 |
| 20260901152630 | 90 | 223 | 6.0 | 12.0 | 0.00 | 0.00 | 0.00 | 72 | 1013.3 |
| 20260901151124 | 89 | 166 | 8.0 | 15.0 | 0.00 | 0.00 | 0.00 | 73 | 1013.2 |
| 20260901145623 | 88 | 167 | 7.0 | 10.0 | 0.00 | 0.00 | 0.00 | 77 | 1013.2 |
| 20260901144123 | 87 | 163 | 7.0 | 10.0 | 0.00 | 0.00 | 0.00 | 81 | 1013.1 |
| 20260901142620 | 86 | 178 | 6.0 | 11.0 | 0.00 | 0.00 | 0.00 | 84 | 1013.2 |
| 20260901141124 | 85 | 169 | 4.0 | 8.0 | 0.00 | 0.00 | 0.00 | 86 | 1013.2 |
| 20260901135622 | 84 | 188 | 3.0 | 6.0 | 0.00 | 0.00 | 0.00 | 89 | 1013.1 |
| 20260901134119 | 82 | 160 | 2.0 | 5.0 | 0.00 | 0.00 | 0.00 | 94 | 1013.1 |
| 20260901132640 | 80 | 169 | 1.0 | 2.0 | 0.00 | 0.00 | 0.00 | 97 | 1012.9 |
| 20260901131140 | 79 | 170 | 0.0 | 0.0 | 0.00 | 0.00 | 0.00 | 98 | 1012.7 |
| 20260901125654 | 77 | 171 | 0.0 | 0.0 | 0.00 | 0.00 | 0.00 | 98 | 1012.6 |
| 20260901124124 | 76 | 171 | 0.0 | 0.0 | 0.00 | 0.00 | 0.00 | 97 | 1012.4 |